Location: Newark
(47.5833°N, 8.1500°E)
Time: 01:24:52
(UTC+00:00)

Vanguard 2 Rocket - Visible Passes

Search period start: 27 October 2020 00:00
Search period end: 06 November 2020 00:00
Orbit: 554 x 3326 km, 32.9° (Epoch: 26 October)

Date Brightness Start Highest point End Pass type
(mag) Time Alt. Az. Time Alt. Az. Time Alt. Az.
28 Oct 8.4 18:32:58 10° SSW 18:34:10 13° S 18:34:10 13° S visible
30 Oct 8.5 18:46:38 10° SSW 18:47:27 12° SSW 18:47:27 12° SSW visible
31 Oct 8.4 17:48:29 10° S 17:49:43 11° S 17:51:00 10° SSE visible
02 Nov 8.4 18:02:09 10° SSW 18:03:25 11° S 18:04:31 10° SSE visible
03 Nov 8.4 17:03:22 10° S 17:04:19 11° S 17:05:15 10° SSE visible
05 Nov 8.5 17:17:02 10° SSW 17:18:00 11° S 17:18:58 10° S visible
